Temperature
4 4 3 3 3 3 3 3 2 2 2 2 2 2 2 2 2 2 2 2 2 3 3 3 3 2 3 3 3 2 2 2 2 2 2 2 2 2
3 3 3 3 3 3 2 2 2 2 1 2 2 2 2 2 2 2 2 2 2 2 2 2 2 2 2 2 2 2 2 2 1 1 1 1 2 2
3 3 3 2 2 2 2 2 2 2 1 1 1 1 1 1 1 2 2 2 2 2 1 1 1 1 1 1 1 1 1 1 1 1 1 1 1 1
2 2 2 2 2 2 2 2 2 1 1 1 1 1 1 1 1 1 1 1 1 1 1 1 1 1 1 1 1 1 0 0 0 0 0 1 1 1
2 2 2 1 1 1 1 1 1 1 1 1 1 0 0 0 0 0 0 0 0 0 0 0 0 0 -0 0 -0 -0 -0 -0 -0 -0 -0 -0 -0 0
1 1 1 1 1 1 1 1 1 1 0 0 0 -0 -0 -0 -0 -0 -0 -0 -0 -0 -0 -0 -1 -1 -1 -0 -0 -0 -0 -0 -1 -0 -0 -0 -1 -1
1 1 1 1 1 1 1 1 1 0 0 -0 -0 -0 -1 -1 -1 -1 -1 -1 -1 -1 -1 -1 -1 -1 -1 -1 -1 -1 -1 -1 -1 -1 -1 -1 -1 -1
1 1 1 1 0 0 0 0 0 0 -0 -0 -1 -1 -1 -1 -1 -1 -1 -2 -2 -1 -2 -1 -1 -1 -1 -1 -1 -2 -2 -2 -2 -1 -1 -1 -1 -1
0 0 0 0 0 0 0 0 -0 -0 -0 -1 -1 -1 -1 -1 -1 -2 -2 -2 -2 -2 -2 -2 -2 -2 -2 -2 -2 -2 -2 -2 -2 -2 -2 -2 -2 -2
-0 0 0 0 -0 -0 -0 -0 -0 -1 -1 -1 -1 -1 -1 -1 -2 -2 -2 -2 -2 -2 -3 -3 -2 -2 -2 -2 -2 -2 -2 -2 -2 -2 -2 -2 -2 -2
-0 -0 -0 -0 -0 -1 -1 -1 -1 -1 -1 -1 -1 -1 -1 -2 -2 -2 -2 -3 -3 -3 -3 -3 -3 -3 -3 -3 -3 -3 -3 -3 -3 -3 -3 -3 -3 -3
-1 -1 -1 -1 -1 -1 -1 -1 -1 -1 -1 -1 -2 -2 -2 -2 -2 -2 -3 -3 -3 -3 -3 -3 -4 -4 -4 -3 -3 -3 -3 -3 -3 -3 -3 -3 -3 -3
-1 -1 -1 -1 -1 -1 -1 -1 -2 -2 -2 -2 -2 -2 -2 -3 -3 -3 -3 -3 -3 -3 -3 -4 -4 -4 -4 -4 -4 -4 -4 -4 -4 -4 -4 -3 -3 -3
-1 -1 -2 -2 -2 -2 -2 -2 -2 -2 -2 -2 -3 -3 -3 -3 -3 -3 -3 -4 -4 -4 -4 -4 -4 -4 -4 -5 -5 -4 -4 -4 -4 -4 -4 -4 -4 -4
-2 -2 -2 -2 -2 -2 -2 -3 -3 -3 -3 -3 -3 -3 -3 -4 -4 -4 -4 -4 -4 -4 -4 -4 -4 -4 -5 -5 -5 -5 -5 -5 -4 -4 -4 -4 -4 -4
-3 -3 -3 -3 -3 -3 -3 -3 -3 -3 -3 -4 -4 -4 -4 -4 -4 -4 -4 -4 -4 -4 -4 -4 -5 -5 -5 -5 -5 -5 -5 -5 -5 -5 -5 -4 -4 -4
-3 -3 -3 -3 -3 -3 -3 -4 -4 -4 -4 -4 -4 -4 -4 -4 -4 -5 -5 -5 -5 -5 -5 -5 -5 -5 -5 -5 -5 -5 -5 -5 -5 -5 -5 -5 -5 -5
-3 -3 -4 -4 -4 -4 -4 -4 -4 -4 -4 -4 -5 -5 -5 -5 -5 -5 -5 -5 -5 -5 -5 -5 -5 -5 -5 -5 -6 -6 -6 -5 -5 -5 -5 -5 -5 -5
-4 -4 -4 -4 -4 -4 -4 -4 -4 -4 -5 -5 -5 -5 -5 -5 -5 -5 -5 -5 -6 -6 -6 -6 -6 -6 -6 -6 -6 -6 -6 -6 -6 -6 -5 -5 -5 -5
-4 -4 -4 -4 -4 -4 -5 -5 -5 -5 -5 -5 -5 -5 -5 -5 -5 -6 -6 -6 -6 -6 -6 -6 -6 -6 -6 -6 -6 -6 -6 -6 -6 -6 -6 -5 -5 -5
-5 -5 -5 -4 -5 -5 -5 -5 -5 -5 -5 -5 -5 -5 -5 -5 -6 -6 -6 -6 -6 -6 -6 -6 -6 -6 -6 -6 -6 -6 -6 -6 -6 -6 -6 -6 -6 -5
-5 -5 -5 -5 -5 -5 -5 -5 -5 -5 -5 -5 -6 -6 -6 -6 -6 -6 -6 -6 -6 -7 -7 -7 -7 -7 -7 -7 -7 -7 -6 -6 -6 -6 -6 -6 -6 -6
-5 -5 -5 -5 -5 -5 -5 -5 -5 -5 -6 -6 -6 -6 -6 -6 -6 -6 -6 -6 -7 -7 -7 -7 -7 -7 -7 -7 -7 -7 -7 -6 -6 -6 -6 -6 -6 -6
Wind_Speed
3 3 3 3 2 2 2 2 2 3 4 3 2 2 4 4 5 5 6 7 8 9 9 10 10 11 11 11 12 12 12 12 12 13 13 14 14 13
3 4 4 3 3 2 3 2 3 3 4 3 3 3 4 5 6 6 6 8 7 8 9 9 10 10 10 11 11 11 11 12 12 13 13 14 14 14
4 4 4 4 3 3 3 3 3 3 5 4 3 3 3 3 5 6 6 6 6 8 9 10 10 10 10 11 11 11 11 12 12 13 14 14 14 14
4 4 4 3 4 3 3 3 4 3 4 5 4 3 3 3 3 4 5 6 5 7 9 10 10 10 10 10 11 11 12 12 12 13 13 14 14 15
5 5 4 4 4 3 3 3 3 3 3 3 4 3 2 2 3 4 4 4 6 7 8 9 9 10 11 11 11 12 12 11 12 12 13 13 14 15
5 5 5 5 5 5 4 4 3 3 3 2 3 3 2 3 2 3 4 3 4 5 7 8 9 10 11 11 11 11 10 11 11 12 13 13 14 14
4 4 5 5 6 5 4 3 3 3 3 3 3 3 3 2 3 2 4 3 3 3 3 4 5 5 7 9 10 10 10 11 12 12 13 13 14 14
4 4 4 5 5 7 7 6 5 4 4 4 4 4 4 4 3 3 3 3 4 2 2 4 3 4 4 5 7 9 10 11 12 12 13 13 13 13
5 4 3 4 4 4 5 6 6 7 7 5 5 6 5 4 3 3 3 4 5 3 3 5 3 4 4 6 7 9 10 11 11 11 12 13 13 13
5 5 4 4 4 3 3 3 3 4 5 4 5 5 5 3 3 3 3 4 4 3 2 4 4 4 5 5 7 9 10 10 11 12 13 13 13 12
3 3 4 4 5 4 3 2 3 3 3 4 5 5 6 5 3 1 2 3 4 3 2 2 2 3 3 4 5 7 9 10 12 13 13 13 12 12
2 3 4 4 5 4 3 3 3 3 1 1 2 3 3 3 4 3 2 3 3 3 1 1 2 3 3 2 2 4 6 9 11 12 13 13 12 8
2 2 2 4 4 4 3 3 3 2 1 1 1 1 1 1 2 2 2 2 3 4 2 1 2 2 3 4 4 3 3 4 6 8 11 13 12 9
2 2 2 3 3 3 2 2 2 2 1 1 1 1 1 1 1 2 3 3 3 4 4 3 3 3 4 5 5 4 4 4 4 5 6 10 10 11
1 2 2 3 2 1 2 2 1 1 1 1 1 2 1 2 1 1 2 2 3 3 3 3 3 3 3 4 5 5 5 4 3 4 5 5 6 6
0 0 1 2 1 1 1 0 0 1 1 1 1 1 1 1 1 1 1 1 2 2 3 3 3 3 4 4 5 5 5 4 4 5 6 6 6 5
0 0 0 0 0 0 0 0 1 0 0 1 1 1 1 1 1 1 1 2 2 2 2 2 3 3 3 3 4 4 4 5 4 5 5 6 5 5
1 1 1 1 1 1 1 0 0 0 1 1 1 1 1 2 2 2 1 1 2 2 2 2 3 3 3 2 3 4 4 4 5 5 5 6 6 5
1 1 1 1 1 1 1 1 1 1 1 1 1 1 1 2 2 2 1 1 2 2 2 2 2 2 4 5 3 3 4 5 5 5 5 5 6 7
1 1 1 1 1 1 1 1 1 1 1 1 1 1 1 2 2 2 2 2 2 2 3 2 2 2 3 5 4 4 6 4 5 6 6 5 5 7
1 1 1 1 1 1 1 1 1 1 1 1 1 2 1 2 2 2 2 2 2 2 3 3 3 4 3 3 3 4 4 6 6 5 5 5 5 5
1 1 1 1 1 1 1 1 1 1 2 2 2 2 1 1 2 2 1 1 2 2 3 3 3 3 2 3 4 5 5 6 7 8 7 6 4 4
1 1 1 1 1 1 1 1 2 2 2 2 1 1 1 1 1 1 1 1 1 2 2 2 3 2 2 3 3 4 5 6 5 5 5 8 9 10
Wind_Direction
220 227 233 248 234 223 214 204 215 257 268 263 283 306 307 295 286 280 281 293 299 298 297 298 301 301 301 303 305 305 306 309 312 312 311 313 313 311
219 226 233 240 236 224 222 230 229 241 264 267 272 286 298 303 295 294 288 294 296 296 296 296 297 299 301 303 303 304 306 306 308 308 309 311 312 312
230 223 232 235 235 230 224 224 233 237 260 281 284 291 297 294 309 303 294 286 287 293 296 297 297 298 298 300 302 304 307 307 307 308 310 311 314 314
234 225 234 239 244 238 229 232 238 242 250 274 285 294 294 289 302 305 306 298 292 295 298 298 298 298 298 299 301 302 305 306 306 308 310 313 313 314
234 224 231 234 242 245 239 235 241 256 254 260 277 288 294 292 302 304 302 299 298 296 299 299 298 300 300 301 302 303 303 304 306 309 311 311 311 312
238 225 226 230 233 238 239 236 239 248 251 254 265 275 283 283 287 292 304 297 296 299 301 300 299 301 300 302 305 304 304 305 307 310 310 309 310 310
239 230 228 234 237 239 245 235 231 238 246 248 256 271 276 273 276 282 293 298 301 295 301 297 296 293 292 296 302 304 305 306 307 309 309 308 308 308
235 231 232 233 242 254 258 254 241 233 237 243 253 253 258 261 269 275 287 302 301 291 305 296 290 293 293 286 292 301 306 308 308 308 309 309 311 309
227 225 241 247 248 242 251 255 255 250 244 238 240 246 253 248 248 263 270 288 287 285 303 295 291 291 294 290 297 306 311 314 316 319 318 316 315 313
228 224 221 226 239 240 244 249 251 258 249 238 231 244 247 242 234 250 267 289 290 286 282 289 295 295 300 286 292 303 311 318 322 322 320 319 319 319
238 231 221 219 242 248 233 242 268 272 271 261 264 267 270 269 271 278 286 293 298 295 282 272 289 300 293 284 281 301 314 319 321 321 322 322 322 323
242 244 235 238 243 244 221 218 244 261 266 274 273 283 279 272 274 249 234 266 294 292 278 299 291 314 307 286 288 305 315 318 322 322 321 322 322 327
230 239 241 253 253 253 249 224 243 255 216 228 249 255 267 272 280 287 274 251 270 278 272 302 289 293 283 297 302 298 311 320 322 321 322 322 321 323
226 231 232 244 265 279 275 249 260 276 216 219 231 249 265 276 284 292 292 291 275 267 272 283 284 288 291 294 298 309 311 313 317 316 322 323 323 320
221 232 253 254 261 265 250 253 263 216 193 216 238 253 259 261 275 294 303 317 316 304 298 291 278 283 281 284 293 300 308 309 312 317 320 319 314 315
38 184 275 276 274 249 247 259 191 202 206 225 242 254 264 262 267 278 301 316 323 320 328 324 302 282 281 281 284 293 299 300 314 316 314 310 313 312
142 115 122 164 131 111 104 154 153 171 268 236 242 263 272 275 283 290 284 300 303 305 320 332 333 311 278 271 283 289 299 303 305 312 318 312 305 304
198 188 206 219 228 231 248 264 228 247 249 261 255 257 267 278 293 300 299 292 294 299 308 317 328 327 321 305 261 281 298 300 307 309 309 306 306 311
210 217 226 233 235 233 239 249 260 266 250 248 264 263 265 269 279 288 296 303 302 302 305 306 315 320 317 313 304 288 297 304 310 310 308 301 298 305
205 232 237 237 235 229 236 253 260 260 259 251 260 261 254 261 269 276 281 290 299 301 308 313 313 305 290 293 294 298 299 298 305 307 307 304 296 300
231 237 242 242 238 243 243 247 253 252 254 261 266 266 256 256 261 266 272 285 294 300 307 308 305 309 300 301 300 303 304 307 298 294 302 307 310 316
232 237 246 243 235 243 246 245 250 253 254 253 257 267 261 253 257 258 261 279 290 291 297 304 311 317 315 308 302 305 312 317 316 311 301 293 298 307
239 240 240 242 235 237 245 240 246 253 254 252 251 258 254 260 263 257 260 267 274 287 304 316 326 326 315 304 302 306 311 318 323 326 318 317 309 299
Height
1493 1494 1495 1496 1496 1497 1497 1498 1498 1496 1494 1494 1495 1494 1494 1493 1492 1491 1490 1489 1487 1486 1485 1484 1482 1481 1480 1479 1477 1476 1474 1473 1472 1471 1470 1468 1467 1465
1489 1490 1491 1491 1492 1493 1493 1493 1494 1493 1492 1490 1490 1490 1490 1489 1488 1487 1486 1485 1483 1482 1481 1480 1478 1477 1476 1474 1473 1471 1470 1468 1467 1466 1465 1464 1462 1461
1485 1486 1486 1487 1487 1488 1489 1489 1489 1489 1488 1487 1487 1486 1485 1485 1484 1483 1482 1480 1479 1478 1476 1475 1474 1472 1471 1470 1468 1467 1465 1464 1463 1461 1460 1459 1458 1456
1481 1481 1482 1483 1483 1484 1484 1485 1485 1485 1485 1483 1482 1482 1481 1481 1480 1479 1477 1476 1475 1474 1472 1471 1470 1468 1467 1466 1464 1462 1461 1460 1458 1457 1455 1454 1453 1452
1476 1477 1478 1478 1479 1479 1480 1480 1480 1481 1480 1480 1478 1478 1477 1476 1475 1474 1473 1472 1471 1470 1468 1467 1465 1464 1463 1461 1460 1458 1456 1455 1454 1452 1451 1450 1449 1447
1472 1473 1473 1474 1475 1475 1476 1476 1476 1476 1476 1476 1475 1474 1473 1472 1471 1470 1468 1467 1466 1465 1464 1463 1461 1460 1459 1457 1455 1454 1452 1451 1450 1448 1446 1445 1444 1443
1468 1468 1469 1470 1471 1472 1472 1472 1472 1472 1472 1471 1470 1470 1469 1468 1467 1466 1464 1463 1462 1461 1459 1459 1458 1456 1455 1453 1451 1450 1448 1447 1445 1444 1442 1441 1439 1438
1463 1464 1465 1466 1467 1467 1468 1468 1468 1468 1467 1467 1466 1465 1465 1465 1464 1463 1461 1460 1458 1458 1456 1455 1454 1452 1450 1449 1447 1446 1444 1443 1441 1440 1438 1436 1435 1433
1459 1460 1461 1462 1462 1463 1463 1463 1464 1464 1464 1463 1462 1461 1461 1460 1460 1458 1458 1457 1455 1454 1453 1450 1450 1448 1447 1445 1444 1443 1441 1439 1437 1436 1434 1432 1431 1429
1455 1456 1457 1457 1458 1458 1458 1458 1458 1459 1459 1458 1458 1458 1457 1457 1456 1455 1454 1453 1452 1451 1450 1448 1446 1445 1443 1442 1441 1439 1438 1436 1434 1432 1430 1428 1427 1425
1451 1452 1452 1453 1454 1454 1454 1454 1454 1454 1454 1454 1454 1454 1453 1453 1452 1451 1450 1449 1447 1447 1447 1445 1443 1441 1440 1438 1437 1436 1434 1433 1430 1428 1426 1424 1423 1421
1447 1447 1448 1449 1450 1450 1450 1450 1450 1450 1450 1450 1450 1449 1449 1449 1448 1448 1447 1446 1444 1443 1442 1442 1440 1439 1436 1434 1434 1433 1431 1429 1427 1425 1423 1421 1419 1417
1442 1443 1444 1444 1445 1445 1446 1446 1446 1446 1446 1446 1445 1445 1445 1445 1444 1444 1444 1443 1442 1440 1440 1439 1437 1436 1435 1432 1430 1429 1428 1426 1424 1422 1420 1418 1416 1414
1438 1439 1440 1441 1441 1442 1442 1442 1443 1443 1442 1442 1442 1441 1441 1441 1440 1440 1440 1440 1439 1438 1437 1436 1435 1433 1432 1430 1427 1425 1424 1423 1421 1418 1416 1414 1412 1410
1435 1436 1437 1437 1438 1438 1438 1439 1439 1439 1439 1438 1438 1438 1438 1438 1437 1437 1436 1436 1435 1435 1434 1433 1432 1431 1430 1428 1425 1423 1421 1419 1418 1415 1413 1411 1409 1407
1433 1433 1434 1434 1434 1435 1435 1435 1435 1436 1435 1435 1435 1435 1434 1434 1434 1434 1433 1432 1432 1431 1431 1431 1430 1429 1427 1425 1424 1421 1419 1417 1415 1413 1410 1408 1406 1404
1431 1431 1431 1431 1431 1431 1432 1432 1432 1432 1432 1432 1432 1431 1431 1431 1431 1431 1431 1430 1429 1428 1428 1427 1427 1426 1425 1423 1421 1419 1417 1415 1413 1411 1408 1405 1403 1401
1428 1428 1428 1429 1429 1429 1429 1429 1429 1429 1429 1429 1429 1429 1429 1429 1428 1428 1428 1428 1427 1426 1425 1425 1424 1423 1422 1420 1420 1417 1415 1413 1410 1408 1406 1403 1400 1398
1426 1426 1426 1426 1426 1427 1427 1427 1427 1427 1427 1427 1427 1427 1427 1427 1426 1426 1426 1425 1425 1424 1424 1423 1422 1421 1419 1417 1416 1416 1413 1410 1408 1406 1403 1401 1398 1395
1423 1424 1424 1424 1424 1425 1425 1425 1425 1425 1425 1425 1425 1425 1425 1425 1424 1424 1424 1423 1423 1422 1422 1421 1421 1420 1418 1417 1414 1413 1412 1409 1406 1404 1401 1399 1396 1394
1421 1421 1422 1422 1422 1422 1422 1422 1422 1422 1422 1423 1423 1423 1423 1422 1422 1422 1422 1421 1421 1420 1419 1419 1418 1418 1416 1415 1412 1410 1409 1408 1405 1403 1400 1397 1394 1391
1419 1419 1419 1419 1419 1420 1420 1420 1420 1420 1420 1420 1420 1420 1420 1420 1420 1420 1420 1419 1419 1419 1418 1417 1416 1415 1414 1413 1410 1408 1406 1405 1403 1401 1399 1397 1394 1390
1417 1417 1417 1417 1417 1417 1417 1417 1417 1417 1417 1418 1418 1418 1418 1418 1418 1418 1418 1418 1417 1417 1416 1415 1414 1413 1412 1411 1409 1407 1405 1403 1401 1399 1397 1395 1393 1391